Other Public Products
Issued by NWS Grand Forks, ND

Home | Current Version | Previous Version | Text Only | Print | Product List | Glossary Off
Versions: 1 2 3 4 5 6 7 8 9 10 11 12 13 14 15 16 17 18 19 20 21 22 23 24 25 26 27 28 29 30 31 32 33 34 35 36 37 38 39 40 41 42 43 44 45 46 47 48 49 50

000
FPUS83 KFGF 112231
OPUFGF
PRAIRIE TO PINES WEATHER ROUNDUP
NATIONAL WEATHER SERVICE EASTERN NORTH DAKOTA/GRAND FORKS ND
500 PM CDT FRI JUL 11 2014

 **SATELLITE DATA USED TO AUGMENT SKY COVER AT AUTOMATED STATIONS**
 *****  WEATHER ACROSS EASTERN NORTH DAKOTA  *****

CITY           SKY/WX    TMP DP  RH WIND       PRES   REMARKS
GRAND FORKS    SUNNY     84  56  38 NW13      29.92R
GRAND FORKS AF SUNNY     84  58  41 NW14      29.94S
GRAND CITY NWS   N/A     84 N/A N/A NW5         N/A
BUXTON           N/A     87  55  32 NW10        N/A
DEVILS LAKE    SUNNY     79  50  36 NW22G30   29.97R
FARGO          SUNNY     87  65  47 N12       29.92S
WAHPETON ARPT  CLEAR     88  59  37 N8        29.93S
$$

 *****  WEATHER ACROSS CENTRAL AND WESTERN NORTH DAKOTA  *****

CITY           SKY/WX    TMP DP  RH WIND       PRES   REMARKS
JAMESTOWN      SUNNY     83  53  35 N9        29.98F
BISMARCK       MOSUNNY   83  49  30 NE12      30.02F
MINOT          SUNNY     76  54  46 NW14G24   30.03F
MINOT AFB      SUNNY     75  55  49 NW17G24   30.03F
GARRISON         N/A     79  60  52 N12       30.05S
WILLISTON      MOSUNNY   80  50  34 NW8G20    30.08S
DICKINSON      MOSUNNY   79  58  48 N10       30.07S
HETTINGER      MOSUNNY   80  55  42 NE13      30.09R
$$

 *****  OTHER OBSERVATIONS NORTHEAST NORTH DAKOTA  *****

CITY           SKY/WX    TMP DP  RH WIND       PRES   REMARKS
WALHALLA       FAIR      77  55  47 W14G21      N/A
LANGDON        FAIR      75  54  46 NW17G23   29.97S
CAVALIER       FAIR      79  55  44 NW13      29.93R
GRAFTON        FAIR      81  50  34 NW16G26   29.92S
CANDO          FAIR      75  57  53 W15       29.99S
FORT TOTTEN      N/A     80  61  51 NW6       29.95S
ROLLA          FAIR      73  52  46 NW14G22   30.01S
RUGBY          FAIR      73  57  56 NW18      30.00F
 ***** THE ABOVE OBSERVATIONS ARE NON NWS ARE NOT QUALITY
        CONTROLLED AND MAY MIS-REPORT RAIN FOR SNOW...
$$

 *****  OTHER OBSERVATIONS SOUTHEAST NORTH DAKOTA *****

CITY           SKY/WX    TMP DP  RH WIND       PRES   REMARKS
COOPERSTOWN    NOT AVBL
VALLEY CITY    FAIR      82  55  39 N9        29.97F
OAKES          NOT AVBL
GWINNER          N/A     88  63  42 N13       29.97S
SHEYENNE NWR     N/A     89  64  42 N5        29.95  HX  90
BUFFALO          N/A     85  47  25 N10         N/A
WYNDMERE       NOT AVBL
 ***** THE ABOVE OBSERVATIONS ARE NON NWS ARE NOT QUALITY
       CONTROLLED AND MAY MIS-REPORT RAIN FOR SNOW...
$$

  *****  WEATHER ACROSS NORTHERN MINNESOTA  *****

CITY           SKY/WX    TMP DP  RH WIND       PRES   REMARKS
FLAG ISLAND    MOSUNNY   79  54  41 W17G30    29.84S HAZE
WARROAD        MOSUNNY   81  57  44 W16G23    29.88S
ROSEAU         SUNNY     81  57  44 W14G23    29.88S
HALLOCK        SUNNY     82  50  32 NW18G28   29.90R
THF RVR FALLS  SUNNY     82  50  32 W17G23    29.92S
HALSTAD          N/A     85  55  36 NW8         N/A
FOSSTON        SUNNY     82  57  42 W13       29.94S
BAUDETTE       SUNNY     82  52  35 NW9G20    29.88R
WASKISH        SUNNY     81  63  54 W10       29.90R
CROOKSTON      SUNNY     82  55  39 NW10G16   29.93S
$$
  *****  WEATHER ACROSS CENTRAL AND WEST MINNESOTA  *****

CITY           SKY/WX    TMP DP  RH WIND       PRES   REMARKS
BEMIDJI        SUNNY     83  61  47 NW14      29.92S
PARK RAPIDS    MOSUNNY   84  64  50 NW13      29.93S
WADENA         MOSUNNY   82  70  65 NW8       29.93S
DETROIT LAKES  MOSUNNY   84  64  51 NW10      29.96R
MOORHEAD       SUNNY     84  66  54 NE9       29.93S
FERGUS FALLS   SUNNY     86  63  45 N9        29.92S
ELBOW LAKE     FAIR      84  70  61 NW7       29.93S
MORRIS MN      SUNNY     88  72  58 N6        29.93R HX  94
STAPLES        MOSUNNY   82  68  61 W7        29.93S
WHEATON        SUNNY     84  68  58 W8        29.94S
$$
  *****  WEATHER ELSEWHERE ACROSS MINNESOTA  *****

CITY           SKY/WX    TMP DP  RH WIND       PRES   REMARKS
DULUTH         DRIZZLE   72  67  84 SW9       29.94F
INTRNTL FALLS  SUNNY     80  60  50 NW15G23   29.85R
ELY            PTSUNNY   72  66  83 SW6       29.91S
CLOQUET        CLOUDY    72  66  83 SW8       29.94F
BRAINERD       MOSUNNY   84  71  65 SW13      29.93F
HIBBING        MOSUNNY   80  69  69 VRB7      29.90F
ALEXANDRIA     MOSUNNY   83  69  62 W8        29.96S
SAINT CLOUD    MOSUNNY   82  70  65 SW7       29.94F
MINNEAPOLIS    CLOUDY    79  69  71 W8        29.96S
$$

  *****  WEATHER ACROSS SOUTH DAKOTA  *****

CITY           SKY/WX    TMP DP  RH WIND       PRES   REMARKS
SIOUX FALLS    CLOUDY    84  71  65 CALM      29.97S
BROOKINGS      NOT AVBL
WATERTOWN      MOSUNNY   89  64  43 NW5       29.95S HX  90
HURON          SUNNY     93  63  36 N8        29.92S HX  94
SISSETON         N/A     86  69  56 N8        29.93R HX  90
ABERDEEN       PTSUNNY   85  68  56 NE8       29.96S
MITCHELL       MOSUNNY   88  74  63 SE6       29.94S HX  96
PIERRE         MOSUNNY   93  65  39 NE5       29.94S HX  95
MOBRIDGE       MOSUNNY   87  63  44 E6        29.96F
RAPID CITY     LGT RAIN  74  64  71 CALM      30.05F
$$

  *****  SOME WEATHER IN NEARBY STATES *****

CITY           SKY/WX    TMP DP  RH WIND       PRES   REMARKS
GLASGOW MT     SUNNY     78  51  38 NW12      30.09F
GREAT FALLS MT SUNNY     73  51  46 E6        30.14F
CHEYENNE WY    CLOUDY    76  59  55 N6        30.19F
SCOTTSBLUFF NE LGT RAIN  82  60  47 MISG      30.08R
OMAHA NE       CLOUDY    81  72  74 SE6       29.97F
DES MOINES IA  LGT RAIN  78  70  76 CALM      30.00F
DAVENPORT IA   CLOUDY    78  66  66 S12       30.07S
CHICAGO IL     LGT RAIN  73  56  54 S10       30.09F
EAU CLAIRE WI  CLOUDY    76  65  68 S13       30.00S
LA CROSSE WI   MOSUNNY   80  65  59 S15       30.01F
$$

  *****  SOME NATIONAL WEATHER *****

CITY           SKY/WX    TMP DP  RH WIND       PRES   REMARKS
LA GUARDIA NY  PTSUNNY   80  62  54 S10       30.17S
RALEIGH NC     MOSUNNY   84  66  54 E7        30.16F
ATLANTA GA     CLOUDY    78  70  76 NW5       30.13S
NEW ORLEANS LA CLOUDY    81  70  69 NE17G23   30.13R
OKLAHOMA CITY  MOSUNNY   92  64  39 S13G22    30.05F HX  93
ALBUQUERQUE NM PTSUNNY   92  47  21 NE6       30.07F THUNDER
SALT LAKE CITY PTSUNNY   84  50  30 W3        30.06F
LOS ANGELES CA MOSUNNY   73  60  63 W16       29.99S
BOISE ID       SUNNY     98  42  14 W12G17    29.89F HX  94
SEATTLE WA     MOSUNNY   85  52  32 W12       29.97S
$$

*** WEATHER ACROSS MANITOBA...SASKATCHEWAN AND ONTARIO ***
                ***ONTARIO***

CITY           SKY/WX    TMP DP  RH WIND       PRES   REMARKS
GERALDTON      LGT RAIN  61  59  94 SW15      29.89F VSB 3/4
THUNDER BAY    CLOUDY    70  64  83 SW6       29.88F
SIOUX LOOKOUT  MOSUNNY   79  57  47 W9        29.80S
TORONTO        PTSUNNY   75  54  46 SE7       30.18F
BIG TROUT LK   MOSUNNY   70  64  83 SE6       29.57S THUNDER
PICKLE LAKE    PTSUNNY   72  61  68 SW12      29.73S THUNDER
DRYDEN         SUNNY     81  48  32 W18       29.80S
KENORA         PTSUNNY   81  50  34 W14G26    29.84S
$$
                *** MANITOBA***

CITY           SKY/WX    TMP DP  RH WIND       PRES   REMARKS
BRANDON        PTSUNNY   73  54  49 NW23      29.98R
DAUPHIN        MOSUNNY   73  54  49 W16G29    29.91S
ISLAND LAKE    LGT RAIN N/A N/A N/A W16G22      N/A
PILOT MOUND      N/A     73  54  49 NW16G23     N/A
THE PAS        CLOUDY    70  46  43 NW22      29.84R
THOMPSON       LGT RAIN  59  54  82 W28G37    29.63R
WINNIPEG       MOSUNNY   77  55  47 NW16G23   29.89S
LYNN LAKE      PTSUNNY   61  43  51 NW25G37   29.72R
CHURCHILL      LGT RAIN  63  57  82 SW3       29.38R
GILLAM         PTSUNNY   68  55  64 W23G33    29.44R
$$
                ***SASKATCHEWAN***

CITY           SKY/WX    TMP DP  RH WIND       PRES   REMARKS
ESTEVAN        MOSUNNY   73  54  49 W14G21    30.08F
KINDERSLEY     MOSUNNY   72  48  43 W13       30.11F
LLOYDMINSTER   PTSUNNY   72  52  49 NW13G22   30.07F
PRINCE ALBERT  MOSUNNY   70  48  46 NW17G28   30.00R
REGINA         SUNNY     72  52  49 NW15G25   30.08S



USA.gov is the U.S. government's official web portal to all federal, state and local government web resources and services.